FREGAT R/B, 45609

Orbit data source: Space-Track

FREGAT R/B, 45609 is space debris in HEO originally from a launch on Fri, 22 May 2020 UTC launched from the Plesetsk Missile And Space Complex (PKMTR). Debris objects in space refer to the collection of defunct objects orbiting the Earth. Examples of debris include non-operational satellites, rocket bodies, and fragments generated from explosions, collisions, or faulty payload assembly.

Loading next visibility...
Identifier
45609, 2020-031B
Orbit
HEO
Last TLE update
5 days ago
Origin
Manufacturer
Lavochkin
Mission
Spacecraft
Bus & Motor
FREGAT, Unknown motor
Mass
1,000 kg wet, 1,000 kg dry
Launch date (UTC)
2020-05-22 (5 years ago)
Launch vehicle
Unknown
Launch site
Plesetsk Missile And Space Complex (PKMTR)
Object type
Payload
Rocket body
Debris
Shape & HBR
Irr, 3.48 m
Radar Cross Section
12.110 m², Large (>1 m²)

Expand to show TLE details & history

TLE from 5 days ago
0 FREGAT R/B
1 45609U 20031B   25182.03628530  .00001014  00000-0  00000-0 0  9991
2 45609  63.5803 107.8631 6987067 258.4182  22.0017  2.01387984 37587
Epoch: 2025-07-01T00:52Z
TLE epoch observation values (Epoch: 2025-07-01T00:52:15.049Z)
Latitude
0.00002°
Longitude
175.49772°
Altitude
9,437.442 km
Speed
5.947 km/s
True Right ascension
07h 11m 35s
True Declination
0° 00' 00"
Sunlit
Object was in daylight at epoch
Visualization orbit readout
Latitude
62.51958°
Longitude
-112.57672°
Altitude
38,404.116 km
Speed
1.661 km/s
Apparent Right ascension
12h 51m 48s
Apparent Declination
58° 51' 50"
Sunlit
Object is in daylight
Visualization observer readout
Local Sidereal Time
05:45:36
Azimuth
33.424° NE
Elevation
25.865°
Doppler factor
1
Orbital elements
Apogee altitude
38,615.354 km
Perigee altitude
1,602.191 km
Semi-major axis
26,486.909 km
Eccentricity
0.69871
Inclination
63.5803°
RAAN
107.8631°
Arg. of periapsis
258.4182°
True anomaly
Unknown
Mean anomaly
22.0017°
Eccentric anomaly
Unknown
Mean motion
0.5035 °/min
Orbital period
715 mins
BSTAR
0
Loading maneuver chart data...
Loading SW <> Apogee altitude chart data...
Loading historical data...
Loading historical data...
Loading historical data...
Loading historical data...
Loading historical data...
Loading historical data...
Loading historical data...
Other satellites on launch #31 in the year 2020 (2020-05-22 UTC)

FREGAT R/B Visibility forecast

Observer location: undefined°, undefined°

Span
Click to sort rows by Start time (UTC) header in descending order
Start Az.
Max El. time (UTC)
Max El. Az.
Max El.
End time (UTC)
End Az.
204 mins2025-07-05 17:50:10.592Z33.433° NE2025-07-05 18:01:10.592Z33.015° NE23.594°2025-07-05 21:14:10.592Z37.738° NE
600 mins2025-07-06 00:32:10.592Z272.872° WNW2025-07-06 08:25:10.592Z319.681° NNW27.696°2025-07-06 10:32:10.592Z265.676° W
208 mins2025-07-06 14:22:10.592Z44.867° NE2025-07-06 17:50:10.592Z32.739° NE23.123°2025-07-06 17:50:10.592Z32.739° NE
|